#datetime,building,power
2023-07-11T00:00:00,mfh,35.23
2023-07-11T00:01:00,mfh,35.23
2023-07-11T00:02:00,mfh,34.63
2023-07-11T00:03:00,mfh,35.48
2023-07-11T00:04:00,mfh,35.44
2023-07-11T00:05:00,mfh,36.13
2023-07-11T00:06:00,mfh,37.23
2023-07-11T00:07:00,mfh,38.01
2023-07-11T00:08:00,mfh,37.14
2023-07-11T00:09:00,mfh,36.95
2023-07-11T00:10:00,mfh,36.25
2023-07-11T00:11:00,mfh,37.23
2023-07-11T00:12:00,mfh,35.29
2023-07-11T00:13:00,mfh,35.25
2023-07-11T00:14:00,mfh,36.09
2023-07-11T00:15:00,mfh,35.38
2023-07-11T00:16:00,mfh,35.41
2023-07-11T00:17:00,mfh,35.27
2023-07-11T00:18:00,mfh,35.22
2023-07-11T00:19:00,mfh,34.56
2023-07-11T00:20:00,mfh,34.56
2023-07-11T00:21:00,mfh,35.39
2023-07-11T00:22:00,mfh,36.03
2023-07-11T00:23:00,mfh,36.04
2023-07-11T00:24:00,mfh,36.54
2023-07-11T00:25:00,mfh,36.07
2023-07-11T00:26:00,mfh,35.57
2023-07-11T00:27:00,mfh,34.82
2023-07-11T00:28:00,mfh,35.44
2023-07-11T00:29:00,mfh,34.71
2023-07-11T00:30:00,mfh,35.36
2023-07-11T00:31:00,mfh,36.67
2023-07-11T00:32:00,mfh,36.74
2023-07-11T00:33:00,mfh,36.03
2023-07-11T00:34:00,mfh,36.16
2023-07-11T00:35:00,mfh,35.53
2023-07-11T00:36:00,mfh,34.72
2023-07-11T00:37:00,mfh,35.27
2023-07-11T00:38:00,mfh,35.06
2023-07-11T00:39:00,mfh,35.21
2023-07-11T00:40:00,mfh,35.38
2023-07-11T00:41:00,mfh,35.52
2023-07-11T00:42:00,mfh,36.19
2023-07-11T00:43:00,mfh,36.24
2023-07-11T00:44:00,mfh,35.71
2023-07-11T00:45:00,mfh,35.71
2023-07-11T00:46:00,mfh,35.69
2023-07-11T00:47:00,mfh,36.06
2023-07-11T00:48:00,mfh,35.27
2023-07-11T00:49:00,mfh,35.26
2023-07-11T00:50:00,mfh,36.04
2023-07-11T00:51:00,mfh,36.30
2023-07-11T00:52:00,mfh,36.37
2023-07-11T00:53:00,mfh,36.33
2023-07-11T00:54:00,mfh,36.46
2023-07-11T00:55:00,mfh,35.56
2023-07-11T00:56:00,mfh,35.42
2023-07-11T00:57:00,mfh,36.03
2023-07-11T00:58:00,mfh,36.06
2023-07-11T00:59:00,mfh,36.15
2023-07-11T01:00:00,mfh,36.34
2023-07-11T01:01:00,mfh,36.84
2023-07-11T01:02:00,mfh,35.85
2023-07-11T01:03:00,mfh,36.23
2023-07-11T01:04:00,mfh,35.41
2023-07-11T01:05:00,mfh,35.33
2023-07-11T01:06:00,mfh,35.99
2023-07-11T01:07:00,mfh,35.30
2023-07-11T01:08:00,mfh,36.24
2023-07-11T01:09:00,mfh,37.14
2023-07-11T01:10:00,mfh,36.73
2023-07-11T01:11:00,mfh,36.09
2023-07-11T01:12:00,mfh,35.79
2023-07-11T01:13:00,mfh,35.40
2023-07-11T01:14:00,mfh,35.42
2023-07-11T01:15:00,mfh,35.43
2023-07-11T01:16:00,mfh,36.26
2023-07-11T01:17:00,mfh,36.47
2023-07-11T01:18:00,mfh,35.92
2023-07-11T01:19:00,mfh,36.36
2023-07-11T01:20:00,mfh,37.14
2023-07-11T01:21:00,mfh,34.66
2023-07-11T01:22:00,mfh,35.41
2023-07-11T01:23:00,mfh,35.47
2023-07-11T01:24:00,mfh,36.40
2023-07-11T01:25:00,mfh,36.89
2023-07-11T01:26:00,mfh,37.05
2023-07-11T01:27:00,mfh,35.50
2023-07-11T01:28:00,mfh,35.65
2023-07-11T01:29:00,mfh,35.50
2023-07-11T01:30:00,mfh,36.52
2023-07-11T01:31:00,mfh,35.27
2023-07-11T01:32:00,mfh,36.11
2023-07-11T01:33:00,mfh,36.03
2023-07-11T01:34:00,mfh,36.38
2023-07-11T01:35:00,mfh,35.01
2023-07-11T01:36:00,mfh,34.98
2023-07-11T01:37:00,mfh,34.17
2023-07-11T01:38:00,mfh,34.18
2023-07-11T01:39:00,mfh,35.45
2023-07-11T01:40:00,mfh,34.97
2023-07-11T01:41:00,mfh,34.95
2023-07-11T01:42:00,mfh,34.96
2023-07-11T01:43:00,mfh,35.75
2023-07-11T01:44:00,mfh,35.02
2023-07-11T01:45:00,mfh,34.98
2023-07-11T01:46:00,mfh,34.94
2023-07-11T01:47:00,mfh,35.06
2023-07-11T01:48:00,mfh,34.89
2023-07-11T01:49:00,mfh,35.00
2023-07-11T01:50:00,mfh,34.93
2023-07-11T01:51:00,mfh,34.97
2023-07-11T01:52:00,mfh,34.38
2023-07-11T01:53:00,mfh,34.32
2023-07-11T01:54:00,mfh,34.92
2023-07-11T01:55:00,mfh,34.78
2023-07-11T01:56:00,mfh,35.37
2023-07-11T01:57:00,mfh,35.48
2023-07-11T01:58:00,mfh,35.50
2023-07-11T01:59:00,mfh,34.74
2023-07-11T02:00:00,mfh,34.75
2023-07-11T02:01:00,mfh,34.76
2023-07-11T02:02:00,mfh,34.02
2023-07-11T02:03:00,mfh,34.09
2023-07-11T02:04:00,mfh,34.88
2023-07-11T02:05:00,mfh,35.84
2023-07-11T02:06:00,mfh,36.57
2023-07-11T02:07:00,mfh,35.89
2023-07-11T02:08:00,mfh,35.91
2023-07-11T02:09:00,mfh,34.25
2023-07-11T02:10:00,mfh,34.31
2023-07-11T02:11:00,mfh,34.19
2023-07-11T02:12:00,mfh,35.08
2023-07-11T02:13:00,mfh,35.80
2023-07-11T02:14:00,mfh,35.45
2023-07-11T02:15:00,mfh,35.59
2023-07-11T02:16:00,mfh,35.87
2023-07-11T02:17:00,mfh,34.90
2023-07-11T02:18:00,mfh,34.21
2023-07-11T02:19:00,mfh,34.26
2023-07-11T02:20:00,mfh,34.12
2023-07-11T02:21:00,mfh,34.54
2023-07-11T02:22:00,mfh,35.45
2023-07-11T02:23:00,mfh,35.52
2023-07-11T02:24:00,mfh,35.96
2023-07-11T02:25:00,mfh,36.08
2023-07-11T02:26:00,mfh,35.42
2023-07-11T02:27:00,mfh,34.34
2023-07-11T02:28:00,mfh,34.37
2023-07-11T02:29:00,mfh,34.35
2023-07-11T02:30:00,mfh,35.84
2023-07-11T02:31:00,mfh,36.21
2023-07-11T02:32:00,mfh,36.55
2023-07-11T02:33:00,mfh,36.54
2023-07-11T02:34:00,mfh,36.61
2023-07-11T02:35:00,mfh,36.16
2023-07-11T02:36:00,mfh,34.86
2023-07-11T02:37:00,mfh,34.92
2023-07-11T02:38:00,mfh,34.52
2023-07-11T02:39:00,mfh,34.77
2023-07-11T02:40:00,mfh,34.82
2023-07-11T02:41:00,mfh,35.67
2023-07-11T02:42:00,mfh,35.58
2023-07-11T02:43:00,mfh,35.70
2023-07-11T02:44:00,mfh,34.92
2023-07-11T02:45:00,mfh,35.04
2023-07-11T02:46:00,mfh,34.24
2023-07-11T02:47:00,mfh,34.93
2023-07-11T02:48:00,mfh,34.89
2023-07-11T02:49:00,mfh,34.96
2023-07-11T02:50:00,mfh,34.91
2023-07-11T02:51:00,mfh,34.94
2023-07-11T02:52:00,mfh,34.28
2023-07-11T02:53:00,mfh,34.94
2023-07-11T02:54:00,mfh,34.85
2023-07-11T02:55:00,mfh,35.47
2023-07-11T02:56:00,mfh,35.50
2023-07-11T02:57:00,mfh,35.40
2023-07-11T02:58:00,mfh,34.86
2023-07-11T02:59:00,mfh,34.87
2023-07-11T03:00:00,mfh,34.86
2023-07-11T03:01:00,mfh,34.08
2023-07-11T03:02:00,mfh,33.95
2023-07-11T03:03:00,mfh,34.62
2023-07-11T03:04:00,mfh,35.41
2023-07-11T03:05:00,mfh,35.33
2023-07-11T03:06:00,mfh,35.38
2023-07-11T03:07:00,mfh,35.38
2023-07-11T03:08:00,mfh,34.92
2023-07-11T03:09:00,mfh,34.02
2023-07-11T03:10:00,mfh,34.05
2023-07-11T03:11:00,mfh,34.14
2023-07-11T03:12:00,mfh,34.13
2023-07-11T03:13:00,mfh,35.42
2023-07-11T03:14:00,mfh,36.44
2023-07-11T03:15:00,mfh,36.28
2023-07-11T03:16:00,mfh,36.50
2023-07-11T03:17:00,mfh,37.21
2023-07-11T03:18:00,mfh,36.03
2023-07-11T03:19:00,mfh,35.95
2023-07-11T03:20:00,mfh,34.11
2023-07-11T03:21:00,mfh,35.47
2023-07-11T03:22:00,mfh,34.76
2023-07-11T03:23:00,mfh,35.44
2023-07-11T03:24:00,mfh,35.67
2023-07-11T03:25:00,mfh,35.86
2023-07-11T03:26:00,mfh,35.19
2023-07-11T03:27:00,mfh,35.69
2023-07-11T03:28:00,mfh,34.17
2023-07-11T03:29:00,mfh,34.23
2023-07-11T03:30:00,mfh,34.86
2023-07-11T03:31:00,mfh,34.88
2023-07-11T03:32:00,mfh,35.86
2023-07-11T03:33:00,mfh,35.81
2023-07-11T03:34:00,mfh,35.87
2023-07-11T03:35:00,mfh,35.74
2023-07-11T03:36:00,mfh,34.04
2023-07-11T03:37:00,mfh,34.02
2023-07-11T03:38:00,mfh,34.70
2023-07-11T03:39:00,mfh,35.86
2023-07-11T03:40:00,mfh,35.66
2023-07-11T03:41:00,mfh,35.66
2023-07-11T03:42:00,mfh,35.22
2023-07-11T03:43:00,mfh,34.57
2023-07-11T03:44:00,mfh,34.71
2023-07-11T03:45:00,mfh,33.99
2023-07-11T03:46:00,mfh,33.96
2023-07-11T03:47:00,mfh,34.48
2023-07-11T03:48:00,mfh,35.96
2023-07-11T03:49:00,mfh,36.76
2023-07-11T03:50:00,mfh,36.76
2023-07-11T03:51:00,mfh,36.77
2023-07-11T03:52:00,mfh,36.18
2023-07-11T03:53:00,mfh,36.26
2023-07-11T03:54:00,mfh,34.42
2023-07-11T03:55:00,mfh,35.38
2023-07-11T03:56:00,mfh,34.33
2023-07-11T03:57:00,mfh,34.33
2023-07-11T03:58:00,mfh,34.36
2023-07-11T03:59:00,mfh,34.32
2023-07-11T04:00:00,mfh,33.80
2023-07-11T04:01:00,mfh,34.53
2023-07-11T04:02:00,mfh,34.33
2023-07-11T04:03:00,mfh,34.29
2023-07-11T04:04:00,mfh,35.01
2023-07-11T04:05:00,mfh,35.16
2023-07-11T04:06:00,mfh,34.37
2023-07-11T04:07:00,mfh,34.29
2023-07-11T04:08:00,mfh,33.62
2023-07-11T04:09:00,mfh,33.61
2023-07-11T04:10:00,mfh,33.59
2023-07-11T04:11:00,mfh,33.51
2023-07-11T04:12:00,mfh,34.69
2023-07-11T04:13:00,mfh,34.82
2023-07-11T04:14:00,mfh,35.07
2023-07-11T04:15:00,mfh,35.04
2023-07-11T04:16:00,mfh,35.02
2023-07-11T04:17:00,mfh,33.75
2023-07-11T04:18:00,mfh,33.84
2023-07-11T04:19:00,mfh,33.73
2023-07-11T04:20:00,mfh,33.72
2023-07-11T04:21:00,mfh,34.32
2023-07-11T04:22:00,mfh,35.28
2023-07-11T04:23:00,mfh,34.49
2023-07-11T04:24:00,mfh,35.79
2023-07-11T04:25:00,mfh,36.16
2023-07-11T04:26:00,mfh,36.45
2023-07-11T04:27:00,mfh,35.23
2023-07-11T04:28:00,mfh,35.31
2023-07-11T04:29:00,mfh,35.90
2023-07-11T04:30:00,mfh,36.25
2023-07-11T04:31:00,mfh,34.80
2023-07-11T04:32:00,mfh,34.79
2023-07-11T04:33:00,mfh,34.80
2023-07-11T04:34:00,mfh,36.57
2023-07-11T04:35:00,mfh,35.70
2023-07-11T04:36:00,mfh,35.84
2023-07-11T04:37:00,mfh,35.71
2023-07-11T04:38:00,mfh,35.49
2023-07-11T04:39:00,mfh,34.71
2023-07-11T04:40:00,mfh,34.75
2023-07-11T04:41:00,mfh,34.68
2023-07-11T04:42:00,mfh,34.71
2023-07-11T04:43:00,mfh,34.90
2023-07-11T04:44:00,mfh,34.98
2023-07-11T04:45:00,mfh,35.64
2023-07-11T04:46:00,mfh,36.28
2023-07-11T04:47:00,mfh,35.56
2023-07-11T04:48:00,mfh,35.55
2023-07-11T04:49:00,mfh,34.96
2023-07-11T04:50:00,mfh,34.97
2023-07-11T04:51:00,mfh,34.36
2023-07-11T04:52:00,mfh,34.25
2023-07-11T04:53:00,mfh,35.04
2023-07-11T04:54:00,mfh,34.79
2023-07-11T04:55:00,mfh,35.46
2023-07-11T04:56:00,mfh,35.39
2023-07-11T04:57:00,mfh,35.41
2023-07-11T04:58:00,mfh,34.92
2023-07-11T04:59:00,mfh,35.34
2023-07-11T05:00:00,mfh,34.38
2023-07-11T05:01:00,mfh,52.28
2023-07-11T05:02:00,mfh,54.11
2023-07-11T05:03:00,mfh,55.34
2023-07-11T05:04:00,mfh,55.19
2023-07-11T05:05:00,mfh,55.56
2023-07-11T05:06:00,mfh,55.18
2023-07-11T05:07:00,mfh,54.86
2023-07-11T05:08:00,mfh,54.10
2023-07-11T05:09:00,mfh,53.67
2023-07-11T05:10:00,mfh,53.67
2023-07-11T05:11:00,mfh,54.64
2023-07-11T05:12:00,mfh,55.13
2023-07-11T05:13:00,mfh,54.55
2023-07-11T05:14:00,mfh,66.34
2023-07-11T05:15:00,mfh,74.98
2023-07-11T05:16:00,mfh,75.57
2023-07-11T05:17:00,mfh,74.74
2023-07-11T05:18:00,mfh,74.03
2023-07-11T05:19:00,mfh,73.77
2023-07-11T05:20:00,mfh,74.82
2023-07-11T05:21:00,mfh,74.99
2023-07-11T05:22:00,mfh,74.83
2023-07-11T05:23:00,mfh,74.70
2023-07-11T05:24:00,mfh,74.68
2023-07-11T05:25:00,mfh,73.95
2023-07-11T05:26:00,mfh,74.26
2023-07-11T05:27:00,mfh,73.91
2023-07-11T05:28:00,mfh,73.58
2023-07-11T05:29:00,mfh,73.51
2023-07-11T05:30:00,mfh,69.64
2023-07-11T05:31:00,mfh,67.21
2023-07-11T05:32:00,mfh,66.98
2023-07-11T05:33:00,mfh,54.34
2023-07-11T05:34:00,mfh,54.08
2023-07-11T05:35:00,mfh,54.04
2023-07-11T05:36:00,mfh,53.95
2023-07-11T05:37:00,mfh,53.95
2023-07-11T05:38:00,mfh,54.01
2023-07-11T05:39:00,mfh,54.23
2023-07-11T05:40:00,mfh,55.22
2023-07-11T05:41:00,mfh,54.51
2023-07-11T05:42:00,mfh,54.53
2023-07-11T05:43:00,mfh,54.39
2023-07-11T05:44:00,mfh,55.00
2023-07-11T05:45:00,mfh,55.04
2023-07-11T05:46:00,mfh,55.10
2023-07-11T05:47:00,mfh,55.59
2023-07-11T05:48:00,mfh,54.43
2023-07-11T05:49:00,mfh,54.24
2023-07-11T05:50:00,mfh,53.59
2023-07-11T05:51:00,mfh,54.65
2023-07-11T05:52:00,mfh,54.38
2023-07-11T05:53:00,mfh,55.10
2023-07-11T05:54:00,mfh,55.24
2023-07-11T05:55:00,mfh,55.63
2023-07-11T05:56:00,mfh,54.92
2023-07-11T05:57:00,mfh,55.14
2023-07-11T05:58:00,mfh,54.23
2023-07-11T05:59:00,mfh,54.29
2023-07-11T06:00:00,mfh,53.52
2023-07-11T06:01:00,mfh,58.28
2023-07-11T06:02:00,mfh,58.94
2023-07-11T06:03:00,mfh,58.85
2023-07-11T06:04:00,mfh,64.48
2023-07-11T06:05:00,mfh,64.73
2023-07-11T06:06:00,mfh,64.81
2023-07-11T06:07:00,mfh,64.75
2023-07-11T06:08:00,mfh,64.69
2023-07-11T06:09:00,mfh,63.83
2023-07-11T06:10:00,mfh,63.26
2023-07-11T06:11:00,mfh,62.98
2023-07-11T06:12:00,mfh,64.15
2023-07-11T06:13:00,mfh,65.54
2023-07-11T06:14:00,mfh,71.44
2023-07-11T06:15:00,mfh,76.64
2023-07-11T06:16:00,mfh,78.24
2023-07-11T06:17:00,mfh,78.52
2023-07-11T06:18:00,mfh,78.51
2023-07-11T06:19:00,mfh,78.22
2023-07-11T06:20:00,mfh,76.87
2023-07-11T06:21:00,mfh,77.01
2023-07-11T06:22:00,mfh,76.89
2023-07-11T06:23:00,mfh,78.21
2023-07-11T06:24:00,mfh,77.81
2023-07-11T06:25:00,mfh,77.40
2023-07-11T06:26:00,mfh,77.11
2023-07-11T06:27:00,mfh,76.93
2023-07-11T06:28:00,mfh,71.98
2023-07-11T06:29:00,mfh,71.25
2023-07-11T06:30:00,mfh,70.69
2023-07-11T06:31:00,mfh,65.32
2023-07-11T06:32:00,mfh,66.25
2023-07-11T06:33:00,mfh,59.80
2023-07-11T06:34:00,mfh,60.25
2023-07-11T06:35:00,mfh,60.48
2023-07-11T06:36:00,mfh,60.24
2023-07-11T06:37:00,mfh,66.53
2023-07-11T06:38:00,mfh,80.30
2023-07-11T06:39:00,mfh,80.18
2023-07-11T06:40:00,mfh,80.81
2023-07-11T06:41:00,mfh,80.07
2023-07-11T06:42:00,mfh,79.92
2023-07-11T06:43:00,mfh,79.70
2023-07-11T06:44:00,mfh,80.29
2023-07-11T06:45:00,mfh,80.38
2023-07-11T06:46:00,mfh,80.14
2023-07-11T06:47:00,mfh,79.98
2023-07-11T06:48:00,mfh,79.82
2023-07-11T06:49:00,mfh,79.05
2023-07-11T06:50:00,mfh,79.05
2023-07-11T06:51:00,mfh,78.49
2023-07-11T06:52:00,mfh,79.20
2023-07-11T06:53:00,mfh,79.03
2023-07-11T06:54:00,mfh,72.87
2023-07-11T06:55:00,mfh,66.02
2023-07-11T06:56:00,mfh,64.68
2023-07-11T06:57:00,mfh,59.78
2023-07-11T06:58:00,mfh,59.76
2023-07-11T06:59:00,mfh,59.46
2023-07-11T07:00:00,mfh,59.52
2023-07-11T07:01:00,mfh,59.16
2023-07-11T07:02:00,mfh,59.91
2023-07-11T07:03:00,mfh,60.47
2023-07-11T07:04:00,mfh,61.27
2023-07-11T07:05:00,mfh,60.11
2023-07-11T07:06:00,mfh,60.78
2023-07-11T07:07:00,mfh,60.63
2023-07-11T07:08:00,mfh,60.52
2023-07-11T07:09:00,mfh,59.76
2023-07-11T07:10:00,mfh,59.81
2023-07-11T07:11:00,mfh,60.49
2023-07-11T07:12:00,mfh,61.43
2023-07-11T07:13:00,mfh,61.50
2023-07-11T07:14:00,mfh,61.06
2023-07-11T07:15:00,mfh,62.15
2023-07-11T07:16:00,mfh,61.21
2023-07-11T07:17:00,mfh,60.60
2023-07-11T07:18:00,mfh,60.60
2023-07-11T07:19:00,mfh,60.60
2023-07-11T07:20:00,mfh,60.66
2023-07-11T07:21:00,mfh,61.86
2023-07-11T07:22:00,mfh,61.92
2023-07-11T07:23:00,mfh,62.45
2023-07-11T07:24:00,mfh,63.03
2023-07-11T07:25:00,mfh,62.76
2023-07-11T07:26:00,mfh,61.28
2023-07-11T07:27:00,mfh,61.14
2023-07-11T07:28:00,mfh,59.85
2023-07-11T07:29:00,mfh,59.84
2023-07-11T07:30:00,mfh,61.45
2023-07-11T07:31:00,mfh,61.95
2023-07-11T07:32:00,mfh,62.00
2023-07-11T07:33:00,mfh,62.25
2023-07-11T07:34:00,mfh,62.20
2023-07-11T07:35:00,mfh,61.28
2023-07-11T07:36:00,mfh,61.03
2023-07-11T07:37:00,mfh,61.11
2023-07-11T07:38:00,mfh,60.31
2023-07-11T07:39:00,mfh,59.69
2023-07-11T07:40:00,mfh,60.25
2023-07-11T07:41:00,mfh,60.41
2023-07-11T07:42:00,mfh,60.96
2023-07-11T07:43:00,mfh,60.80
2023-07-11T07:44:00,mfh,60.80
2023-07-11T07:45:00,mfh,60.65
2023-07-11T07:46:00,mfh,60.95
2023-07-11T07:47:00,mfh,60.88
2023-07-11T07:48:00,mfh,60.84
2023-07-11T07:49:00,mfh,60.49
2023-07-11T07:50:00,mfh,60.14
2023-07-11T07:51:00,mfh,59.57
2023-07-11T07:52:00,mfh,60.25
2023-07-11T07:53:00,mfh,61.05
2023-07-11T07:54:00,mfh,61.11
2023-07-11T07:55:00,mfh,61.02
2023-07-11T07:56:00,mfh,61.04
2023-07-11T07:57:00,mfh,61.23
2023-07-11T07:58:00,mfh,61.75
2023-07-11T07:59:00,mfh,61.13
2023-07-11T08:00:00,mfh,61.37
2023-07-11T08:01:00,mfh,60.57
2023-07-11T08:02:00,mfh,61.18
2023-07-11T08:03:00,mfh,61.26
2023-07-11T08:04:00,mfh,61.56
2023-07-11T08:05:00,mfh,61.75
2023-07-11T08:06:00,mfh,61.91
2023-07-11T08:07:00,mfh,61.89
2023-07-11T08:08:00,mfh,62.06
2023-07-11T08:09:00,mfh,69.11
2023-07-11T08:10:00,mfh,69.34
2023-07-11T08:11:00,mfh,69.49
2023-07-11T08:12:00,mfh,70.14
2023-07-11T08:13:00,mfh,70.58
2023-07-11T08:14:00,mfh,70.54
2023-07-11T08:15:00,mfh,71.32
2023-07-11T08:16:00,mfh,70.87
2023-07-11T08:17:00,mfh,70.31
2023-07-11T08:18:00,mfh,70.41
2023-07-11T08:19:00,mfh,70.17
2023-07-11T08:20:00,mfh,69.16
2023-07-11T08:21:00,mfh,69.13
2023-07-11T08:22:00,mfh,70.53
2023-07-11T08:23:00,mfh,75.60
2023-07-11T08:24:00,mfh,75.57
2023-07-11T08:25:00,mfh,75.07
2023-07-11T08:26:00,mfh,74.84
2023-07-11T08:27:00,mfh,75.02
2023-07-11T08:28:00,mfh,74.72
2023-07-11T08:29:00,mfh,74.59
2023-07-11T08:30:00,mfh,74.76
2023-07-11T08:31:00,mfh,73.27
2023-07-11T08:32:00,mfh,73.17
2023-07-11T08:33:00,mfh,73.20
2023-07-11T08:34:00,mfh,74.34
2023-07-11T08:35:00,mfh,74.52
2023-07-11T08:36:00,mfh,74.40
2023-07-11T08:37:00,mfh,74.67
2023-07-11T08:38:00,mfh,73.94
2023-07-11T08:39:00,mfh,73.17
2023-07-11T08:40:00,mfh,73.06
2023-07-11T08:41:00,mfh,73.16
2023-07-11T08:42:00,mfh,72.95
2023-07-11T08:43:00,mfh,72.91
2023-07-11T08:44:00,mfh,74.76
2023-07-11T08:45:00,mfh,74.56
2023-07-11T08:46:00,mfh,74.74
2023-07-11T08:47:00,mfh,73.73
2023-07-11T08:48:00,mfh,73.67
2023-07-11T08:49:00,mfh,73.38
2023-07-11T08:50:00,mfh,73.00
2023-07-11T08:51:00,mfh,73.46
2023-07-11T08:52:00,mfh,73.72
2023-07-11T08:53:00,mfh,73.72
2023-07-11T08:54:00,mfh,80.75
2023-07-11T08:55:00,mfh,83.50
2023-07-11T08:56:00,mfh,84.28
2023-07-11T08:57:00,mfh,84.06
2023-07-11T08:58:00,mfh,83.94
2023-07-11T08:59:00,mfh,83.89
2023-07-11T09:00:00,mfh,83.87
2023-07-11T09:01:00,mfh,83.51
2023-07-11T09:02:00,mfh,83.03
2023-07-11T09:03:00,mfh,83.12
2023-07-11T09:04:00,mfh,83.70
2023-07-11T09:05:00,mfh,80.88
2023-07-11T09:06:00,mfh,80.95
2023-07-11T09:07:00,mfh,80.93
2023-07-11T09:08:00,mfh,75.06
2023-07-11T09:09:00,mfh,74.37
2023-07-11T09:10:00,mfh,74.47
2023-07-11T09:11:00,mfh,73.55
2023-07-11T09:12:00,mfh,68.88
2023-07-11T09:13:00,mfh,61.83
2023-07-11T09:14:00,mfh,61.18
2023-07-11T09:15:00,mfh,61.01
2023-07-11T09:16:00,mfh,61.90
2023-07-11T09:17:00,mfh,61.54
2023-07-11T09:18:00,mfh,61.59
2023-07-11T09:19:00,mfh,61.58
2023-07-11T09:20:00,mfh,61.82
2023-07-11T09:21:00,mfh,61.08
2023-07-11T09:22:00,mfh,61.01
2023-07-11T09:23:00,mfh,60.59
2023-07-11T09:24:00,mfh,61.52
2023-07-11T09:25:00,mfh,61.38
2023-07-11T09:26:00,mfh,61.93
2023-07-11T09:27:00,mfh,61.89
2023-07-11T09:28:00,mfh,62.10
2023-07-11T09:29:00,mfh,62.22
2023-07-11T09:30:00,mfh,62.31
2023-07-11T09:31:00,mfh,61.97
2023-07-11T09:32:00,mfh,61.49
2023-07-11T09:33:00,mfh,61.41
2023-07-11T09:34:00,mfh,62.27
2023-07-11T09:35:00,mfh,61.61
2023-07-11T09:36:00,mfh,61.44
2023-07-11T09:37:00,mfh,61.35
2023-07-11T09:38:00,mfh,62.61
2023-07-11T09:39:00,mfh,62.00
2023-07-11T09:40:00,mfh,61.74
2023-07-11T09:41:00,mfh,62.05
2023-07-11T09:42:00,mfh,61.15
2023-07-11T09:43:00,mfh,61.07
2023-07-11T09:44:00,mfh,62.14
2023-07-11T09:45:00,mfh,61.09
2023-07-11T09:46:00,mfh,60.70
2023-07-11T09:47:00,mfh,61.50
2023-07-11T09:48:00,mfh,61.12
2023-07-11T09:49:00,mfh,61.42
2023-07-11T09:50:00,mfh,61.04
2023-07-11T09:51:00,mfh,61.29
2023-07-11T09:52:00,mfh,60.72
2023-07-11T09:53:00,mfh,60.26
2023-07-11T09:54:00,mfh,59.99
2023-07-11T09:55:00,mfh,59.90
2023-07-11T09:56:00,mfh,62.55
2023-07-11T09:57:00,mfh,60.84
2023-07-11T09:58:00,mfh,60.94
2023-07-11T09:59:00,mfh,61.55
2023-07-11T10:00:00,mfh,61.63
2023-07-11T10:01:00,mfh,61.57
2023-07-11T10:02:00,mfh,61.55
2023-07-11T10:03:00,mfh,61.41
2023-07-11T10:04:00,mfh,62.10
2023-07-11T10:05:00,mfh,60.65
2023-07-11T10:06:00,mfh,60.03
2023-07-11T10:07:00,mfh,60.60
2023-07-11T10:08:00,mfh,61.22
2023-07-11T10:09:00,mfh,61.73
2023-07-11T10:10:00,mfh,62.21
2023-07-11T10:11:00,mfh,61.32
2023-07-11T10:12:00,mfh,61.47
2023-07-11T10:13:00,mfh,61.42
2023-07-11T10:14:00,mfh,61.32
2023-07-11T10:15:00,mfh,61.21
2023-07-11T10:16:00,mfh,61.58
2023-07-11T10:17:00,mfh,60.93
2023-07-11T10:18:00,mfh,61.28
2023-07-11T10:19:00,mfh,60.49
2023-07-11T10:20:00,mfh,60.45
2023-07-11T10:21:00,mfh,60.61
2023-07-11T10:22:00,mfh,61.20
2023-07-11T10:23:00,mfh,61.23
2023-07-11T10:24:00,mfh,61.32
2023-07-11T10:25:00,mfh,62.08
2023-07-11T10:26:00,mfh,61.28
2023-07-11T10:27:00,mfh,60.37
2023-07-11T10:28:00,mfh,60.52
2023-07-11T10:29:00,mfh,60.45
2023-07-11T10:30:00,mfh,60.87
2023-07-11T10:31:00,mfh,60.95
2023-07-11T10:32:00,mfh,61.20
2023-07-11T10:33:00,mfh,60.24
2023-07-11T10:34:00,mfh,60.36
2023-07-11T10:35:00,mfh,60.59
2023-07-11T10:36:00,mfh,61.00
2023-07-11T10:37:00,mfh,60.75
2023-07-11T10:38:00,mfh,60.23
2023-07-11T10:39:00,mfh,60.10
2023-07-11T10:40:00,mfh,61.12
2023-07-11T10:41:00,mfh,61.04
2023-07-11T10:42:00,mfh,61.12
2023-07-11T10:43:00,mfh,61.26
2023-07-11T10:44:00,mfh,61.19
2023-07-11T10:45:00,mfh,61.46
2023-07-11T10:46:00,mfh,61.07
2023-07-11T10:47:00,mfh,60.92
2023-07-11T10:48:00,mfh,59.42
2023-07-11T10:49:00,mfh,59.54
2023-07-11T10:50:00,mfh,59.59
2023-07-11T10:51:00,mfh,66.29
2023-07-11T10:52:00,mfh,66.60
2023-07-11T10:53:00,mfh,66.48
2023-07-11T10:54:00,mfh,66.54
2023-07-11T10:55:00,mfh,79.31
2023-07-11T10:56:00,mfh,80.98
2023-07-11T10:57:00,mfh,81.24
2023-07-11T10:58:00,mfh,81.17
2023-07-11T10:59:00,mfh,80.39
2023-07-11T11:00:00,mfh,80.19
2023-07-11T11:01:00,mfh,80.03
2023-07-11T11:02:00,mfh,80.47
2023-07-11T11:03:00,mfh,80.31
2023-07-11T11:04:00,mfh,79.46
2023-07-11T11:05:00,mfh,79.26
2023-07-11T11:06:00,mfh,79.31
2023-07-11T11:07:00,mfh,73.51
2023-07-11T11:08:00,mfh,83.35
2023-07-11T11:09:00,mfh,83.09
2023-07-11T11:10:00,mfh,83.12
2023-07-11T11:11:00,mfh,82.95
2023-07-11T11:12:00,mfh,83.25
2023-07-11T11:13:00,mfh,83.74
2023-07-11T11:14:00,mfh,83.38
2023-07-11T11:15:00,mfh,83.60
2023-07-11T11:16:00,mfh,83.53
2023-07-11T11:17:00,mfh,83.57
2023-07-11T11:18:00,mfh,83.22
2023-07-11T11:19:00,mfh,83.16
2023-07-11T11:20:00,mfh,82.78
2023-07-11T11:21:00,mfh,82.45
2023-07-11T11:22:00,mfh,82.73
2023-07-11T11:23:00,mfh,82.80
2023-07-11T11:24:00,mfh,82.73
2023-07-11T11:25:00,mfh,81.95
2023-07-11T11:26:00,mfh,82.15
2023-07-11T11:27:00,mfh,82.10
2023-07-11T11:28:00,mfh,82.68
2023-07-11T11:29:00,mfh,82.71
2023-07-11T11:30:00,mfh,82.25
2023-07-11T11:31:00,mfh,82.37
2023-07-11T11:32:00,mfh,82.35
2023-07-11T11:33:00,mfh,82.60
2023-07-11T11:34:00,mfh,82.57
2023-07-11T11:35:00,mfh,82.82
2023-07-11T11:36:00,mfh,82.76
2023-07-11T11:37:00,mfh,82.61
2023-07-11T11:38:00,mfh,82.71
2023-07-11T11:39:00,mfh,82.75
2023-07-11T11:40:00,mfh,82.67
2023-07-11T11:41:00,mfh,82.39
2023-07-11T11:42:00,mfh,82.43
2023-07-11T11:43:00,mfh,82.59
2023-07-11T11:44:00,mfh,82.86
2023-07-11T11:45:00,mfh,82.14
2023-07-11T11:46:00,mfh,82.17
2023-07-11T11:47:00,mfh,81.95
2023-07-11T11:48:00,mfh,82.06
2023-07-11T11:49:00,mfh,82.62
2023-07-11T11:50:00,mfh,82.65
2023-07-11T11:51:00,mfh,82.35
2023-07-11T11:52:00,mfh,82.36
2023-07-11T11:53:00,mfh,82.44
2023-07-11T11:54:00,mfh,82.61
2023-07-11T11:55:00,mfh,82.56
2023-07-11T11:56:00,mfh,82.42
2023-07-11T11:57:00,mfh,82.54
2023-07-11T11:58:00,mfh,82.57
2023-07-11T11:59:00,mfh,82.88
2023-07-11T12:00:00,mfh,82.65
2023-07-11T12:01:00,mfh,82.60
2023-07-11T12:02:00,mfh,82.32
2023-07-11T12:03:00,mfh,82.39
2023-07-11T12:04:00,mfh,82.26
2023-07-11T12:05:00,mfh,82.74
2023-07-11T12:06:00,mfh,77.90
2023-07-11T12:07:00,mfh,77.80
2023-07-11T12:08:00,mfh,77.73
2023-07-11T12:09:00,mfh,77.32
2023-07-11T12:10:00,mfh,76.90
2023-07-11T12:11:00,mfh,77.67
2023-07-11T12:12:00,mfh,77.03
2023-07-11T12:13:00,mfh,76.99
2023-07-11T12:14:00,mfh,77.19
2023-07-11T12:15:00,mfh,77.85
2023-07-11T12:16:00,mfh,77.69
2023-07-11T12:17:00,mfh,78.30
2023-07-11T12:18:00,mfh,78.35
2023-07-11T12:19:00,mfh,77.93
2023-07-11T12:20:00,mfh,77.93
2023-07-11T12:21:00,mfh,78.02
2023-07-11T12:22:00,mfh,78.10
2023-07-11T12:23:00,mfh,77.48
2023-07-11T12:24:00,mfh,77.42
2023-07-11T12:25:00,mfh,77.34
2023-07-11T12:26:00,mfh,77.98
2023-07-11T12:27:00,mfh,78.05
2023-07-11T12:28:00,mfh,78.15
2023-07-11T12:29:00,mfh,77.81
2023-07-11T12:30:00,mfh,78.07
2023-07-11T12:31:00,mfh,77.78
2023-07-11T12:32:00,mfh,77.72
2023-07-11T12:33:00,mfh,77.72
2023-07-11T12:34:00,mfh,77.08
2023-07-11T12:35:00,mfh,76.94
2023-07-11T12:36:00,mfh,77.53
2023-07-11T12:37:00,mfh,77.53
2023-07-11T12:38:00,mfh,77.47
2023-07-11T12:39:00,mfh,77.50
2023-07-11T12:40:00,mfh,77.68
2023-07-11T12:41:00,mfh,78.12
2023-07-11T12:42:00,mfh,77.47
2023-07-11T12:43:00,mfh,77.55
2023-07-11T12:44:00,mfh,77.46
2023-07-11T12:45:00,mfh,77.47
2023-07-11T12:46:00,mfh,77.43
2023-07-11T12:47:00,mfh,77.92
2023-07-11T12:48:00,mfh,77.80
2023-07-11T12:49:00,mfh,77.52
2023-07-11T12:50:00,mfh,77.67
2023-07-11T12:51:00,mfh,77.67
2023-07-11T12:52:00,mfh,77.70
2023-07-11T12:53:00,mfh,77.82
2023-07-11T12:54:00,mfh,77.37
2023-07-11T12:55:00,mfh,77.31
2023-07-11T12:56:00,mfh,77.31
2023-07-11T12:57:00,mfh,77.72
2023-07-11T12:58:00,mfh,77.81
2023-07-11T12:59:00,mfh,77.76
2023-07-11T13:00:00,mfh,77.76
2023-07-11T13:01:00,mfh,77.71
2023-07-11T13:02:00,mfh,77.81
2023-07-11T13:03:00,mfh,78.08
2023-07-11T13:04:00,mfh,78.05
2023-07-11T13:05:00,mfh,77.61
2023-07-11T13:06:00,mfh,73.31
2023-07-11T13:07:00,mfh,73.34
2023-07-11T13:08:00,mfh,73.51
2023-07-11T13:09:00,mfh,74.50
2023-07-11T13:10:00,mfh,74.67
2023-07-11T13:11:00,mfh,74.79
2023-07-11T13:12:00,mfh,74.71
2023-07-11T13:13:00,mfh,74.61
2023-07-11T13:14:00,mfh,74.95
2023-07-11T13:15:00,mfh,74.90
2023-07-11T13:16:00,mfh,73.91
2023-07-11T13:17:00,mfh,73.46
2023-07-11T13:18:00,mfh,74.17